Year,Month,Day,Hour,Minute,Value (Times are PST for temperature in C)
2018,06,09,00,00,11.10
2018,06,09,00,01,11.10
2018,06,09,00,02,11.10
2018,06,09,00,03,11.10
2018,06,09,00,04,11.10
2018,06,09,00,05,11.10
2018,06,09,00,06,11.10
2018,06,09,00,07,11.10
2018,06,09,00,08,11.00
2018,06,09,00,09,11.00
2018,06,09,00,10,11.00
2018,06,09,00,11,11.00
2018,06,09,00,12,10.90
2018,06,09,00,13,10.90
2018,06,09,00,14,10.90
2018,06,09,00,15,10.90
2018,06,09,00,16,10.90
2018,06,09,00,17,10.80
2018,06,09,00,18,10.80
2018,06,09,00,19,10.80
2018,06,09,00,20,10.80
2018,06,09,00,21,10.80
2018,06,09,00,22,10.80
2018,06,09,00,23,10.70
2018,06,09,00,24,10.70
2018,06,09,00,25,10.70
2018,06,09,00,26,10.70
2018,06,09,00,27,10.70
2018,06,09,00,28,10.70
2018,06,09,00,29,10.70
2018,06,09,00,30,10.60
2018,06,09,00,31,10.60
2018,06,09,00,32,10.50
2018,06,09,00,33,10.50
2018,06,09,00,34,10.50
2018,06,09,00,35,10.50
2018,06,09,00,36,10.50
2018,06,09,00,37,10.50
2018,06,09,00,38,10.50
2018,06,09,00,39,10.50
2018,06,09,00,40,10.50
2018,06,09,00,41,10.50
2018,06,09,00,42,10.40
2018,06,09,00,43,10.40
2018,06,09,00,44,10.40
2018,06,09,00,45,10.40
2018,06,09,00,46,10.30
2018,06,09,00,47,10.30
2018,06,09,00,48,10.30
2018,06,09,00,49,10.30
2018,06,09,00,50,10.30
2018,06,09,00,51,10.30
2018,06,09,00,52,10.30
2018,06,09,00,53,10.30
2018,06,09,00,54,10.30
2018,06,09,00,55,10.30
2018,06,09,00,56,10.30
2018,06,09,00,57,10.30
2018,06,09,00,58,10.20
2018,06,09,00,59,10.30
2018,06,09,01,00,10.30
2018,06,09,01,01,10.20
2018,06,09,01,02,10.20
2018,06,09,01,03,10.20
2018,06,09,01,04,10.20
2018,06,09,01,05,10.20
2018,06,09,01,06,10.20
2018,06,09,01,07,10.20
2018,06,09,01,08,10.20
2018,06,09,01,09,10.20
2018,06,09,01,10,10.20
2018,06,09,01,11,10.20
2018,06,09,01,12,10.10
2018,06,09,01,13,10.10
2018,06,09,01,14,10.10
2018,06,09,01,15,10.10
2018,06,09,01,16,10.10
2018,06,09,01,17,10.00
2018,06,09,01,18,10.00
2018,06,09,01,19,10.00
2018,06,09,01,20,10.00
2018,06,09,01,21,10.00
2018,06,09,01,22,9.90
2018,06,09,01,23,9.90
2018,06,09,01,24,9.90
2018,06,09,01,25,9.90
2018,06,09,01,26,9.90
2018,06,09,01,27,9.90
2018,06,09,01,28,9.90
2018,06,09,01,29,9.90
2018,06,09,01,30,9.90
2018,06,09,01,31,9.90
2018,06,09,01,32,9.90
2018,06,09,01,33,9.90
2018,06,09,01,34,9.80
2018,06,09,01,35,9.80
2018,06,09,01,36,9.80
2018,06,09,01,37,9.80
2018,06,09,01,38,9.80
2018,06,09,01,39,9.80
2018,06,09,01,40,9.80
2018,06,09,01,41,9.80
2018,06,09,01,42,9.80
2018,06,09,01,43,9.80
2018,06,09,01,44,9.80
2018,06,09,01,45,9.80
2018,06,09,01,46,9.80
2018,06,09,01,47,9.80
2018,06,09,01,48,9.80
2018,06,09,01,49,9.80
2018,06,09,01,50,9.80
2018,06,09,01,51,9.80
2018,06,09,01,52,9.80
2018,06,09,01,53,9.80
2018,06,09,01,54,9.80
2018,06,09,01,55,9.80
2018,06,09,01,56,9.80
2018,06,09,01,57,9.80
2018,06,09,01,58,9.80
2018,06,09,01,59,9.70
2018,06,09,02,00,9.70
2018,06,09,02,01,9.70
2018,06,09,02,02,9.70
2018,06,09,02,03,9.70
2018,06,09,02,04,9.70
2018,06,09,02,05,9.70
2018,06,09,02,06,9.70
2018,06,09,02,07,9.70
2018,06,09,02,08,9.70
2018,06,09,02,09,9.70
2018,06,09,02,10,9.70
2018,06,09,02,11,9.70
2018,06,09,02,12,9.70
2018,06,09,02,13,9.70
2018,06,09,02,14,9.70
2018,06,09,02,15,9.70
2018,06,09,02,16,9.70
2018,06,09,02,17,9.70
2018,06,09,02,18,9.70
2018,06,09,02,19,9.70
2018,06,09,02,20,9.80
2018,06,09,02,21,9.80
2018,06,09,02,22,9.80
2018,06,09,02,23,9.80
2018,06,09,02,24,9.80
2018,06,09,02,25,9.80
2018,06,09,02,26,9.80
2018,06,09,02,27,9.80
2018,06,09,02,28,9.80
2018,06,09,02,29,9.80
2018,06,09,02,30,9.80
2018,06,09,02,31,9.80
2018,06,09,02,32,9.80
2018,06,09,02,33,9.80
2018,06,09,02,34,9.80
2018,06,09,02,35,9.80
2018,06,09,02,36,9.80
2018,06,09,02,37,9.80
2018,06,09,02,38,9.80
2018,06,09,02,39,9.80
2018,06,09,02,40,9.80
2018,06,09,02,41,9.80
2018,06,09,02,42,9.90
2018,06,09,02,43,9.90
2018,06,09,02,44,9.90
2018,06,09,02,45,9.90
2018,06,09,02,46,9.80
2018,06,09,02,47,9.80
2018,06,09,02,48,9.80
2018,06,09,02,49,9.90
2018,06,09,02,50,9.90
2018,06,09,02,51,9.90
2018,06,09,02,52,9.90
2018,06,09,02,53,9.90
2018,06,09,02,54,9.90
2018,06,09,02,55,9.90
2018,06,09,02,56,9.90
2018,06,09,02,57,9.90
2018,06,09,02,58,9.90
2018,06,09,02,59,10.00
2018,06,09,03,00,9.90
2018,06,09,03,01,10.00
2018,06,09,03,02,10.00
2018,06,09,03,03,10.00
2018,06,09,03,04,10.00
2018,06,09,03,05,10.00
2018,06,09,03,06,9.90
2018,06,09,03,07,9.90
2018,06,09,03,08,9.90
2018,06,09,03,09,9.90
2018,06,09,03,10,9.90
2018,06,09,03,11,9.90
2018,06,09,03,12,9.90
2018,06,09,03,13,9.80
2018,06,09,03,14,9.80
2018,06,09,03,15,9.80
2018,06,09,03,16,9.80
2018,06,09,03,17,9.80
2018,06,09,03,18,9.80
2018,06,09,03,19,9.80
2018,06,09,03,20,9.80
2018,06,09,03,21,9.80
2018,06,09,03,22,9.80
2018,06,09,03,23,9.80
2018,06,09,03,24,9.80
2018,06,09,03,25,9.80
2018,06,09,03,26,9.80
2018,06,09,03,27,9.80
2018,06,09,03,28,9.80
2018,06,09,03,29,9.80
2018,06,09,03,30,9.80
2018,06,09,03,31,9.80
2018,06,09,03,32,9.80
2018,06,09,03,33,9.80
2018,06,09,03,34,9.80
2018,06,09,03,35,9.80
2018,06,09,03,36,9.80
2018,06,09,03,37,9.80
2018,06,09,03,38,9.80
2018,06,09,03,39,9.80
2018,06,09,03,40,9.80
2018,06,09,03,41,9.80
2018,06,09,03,42,9.80
2018,06,09,03,43,9.80
2018,06,09,03,44,9.80
2018,06,09,03,45,9.80
2018,06,09,03,46,9.80
2018,06,09,03,47,9.80
2018,06,09,03,48,9.70
2018,06,09,03,49,9.70
2018,06,09,03,50,9.70
2018,06,09,03,51,9.70
2018,06,09,03,52,9.70
2018,06,09,03,53,9.70
2018,06,09,03,54,9.70
2018,06,09,03,55,9.70
2018,06,09,03,56,9.70
2018,06,09,03,57,9.70
2018,06,09,03,58,9.70
2018,06,09,03,59,9.70
2018,06,09,04,00,9.70
2018,06,09,04,01,9.70
2018,06,09,04,02,9.70
2018,06,09,04,03,9.70
2018,06,09,04,04,9.70
2018,06,09,04,05,9.70
2018,06,09,04,06,9.60
2018,06,09,04,07,9.60
2018,06,09,04,08,9.60
2018,06,09,04,09,9.60
2018,06,09,04,10,9.60
2018,06,09,04,11,9.60
2018,06,09,04,12,9.60
2018,06,09,04,13,9.70
2018,06,09,04,14,9.70
2018,06,09,04,15,9.70
2018,06,09,04,16,9.70
2018,06,09,04,17,9.70
2018,06,09,04,18,9.70
2018,06,09,04,19,9.70
2018,06,09,04,20,9.70
2018,06,09,04,21,9.70
2018,06,09,04,22,9.60
2018,06,09,04,23,9.60
2018,06,09,04,24,9.60
2018,06,09,04,25,9.60
2018,06,09,04,26,9.60
2018,06,09,04,27,9.60
2018,06,09,04,28,9.60
2018,06,09,04,29,9.60
2018,06,09,04,30,9.60
2018,06,09,04,31,9.60
2018,06,09,04,32,9.60
2018,06,09,04,33,9.60
2018,06,09,04,34,9.60
2018,06,09,04,35,9.60
2018,06,09,04,36,9.60
2018,06,09,04,37,9.60
2018,06,09,04,38,9.60
2018,06,09,04,39,9.60
2018,06,09,04,40,9.60
2018,06,09,04,41,9.60
2018,06,09,04,42,9.60
2018,06,09,04,43,9.60
2018,06,09,04,44,9.60
2018,06,09,04,45,9.50
2018,06,09,04,46,9.50
2018,06,09,04,47,9.50
2018,06,09,04,48,9.50
2018,06,09,04,49,9.50
2018,06,09,04,50,9.50
2018,06,09,04,51,9.50
2018,06,09,04,52,9.50
2018,06,09,04,53,9.50
2018,06,09,04,54,9.50
2018,06,09,04,55,9.40
2018,06,09,04,56,9.40
2018,06,09,04,57,9.50
2018,06,09,04,58,9.50
2018,06,09,04,59,9.50
2018,06,09,05,00,9.50
2018,06,09,05,01,9.50
2018,06,09,05,02,9.60
2018,06,09,05,03,9.50
2018,06,09,05,04,9.50
2018,06,09,05,05,9.50
2018,06,09,05,06,9.50
2018,06,09,05,07,9.50
2018,06,09,05,08,9.40
2018,06,09,05,09,9.40
2018,06,09,05,10,9.40
2018,06,09,05,11,9.40
2018,06,09,05,12,9.40
2018,06,09,05,13,9.40
2018,06,09,05,14,9.40
2018,06,09,05,15,9.40
2018,06,09,05,16,9.30
2018,06,09,05,17,9.30
2018,06,09,05,18,9.30
2018,06,09,05,19,9.30
2018,06,09,05,20,9.30
2018,06,09,05,21,9.30
2018,06,09,05,22,9.30
2018,06,09,05,23,9.30
2018,06,09,05,24,9.20
2018,06,09,05,25,9.30
2018,06,09,05,26,9.30
2018,06,09,05,27,9.30
2018,06,09,05,28,9.20
2018,06,09,05,29,9.20
2018,06,09,05,30,9.20
2018,06,09,05,31,9.20
2018,06,09,05,32,9.20
2018,06,09,05,33,9.20
2018,06,09,05,34,9.20
2018,06,09,05,35,9.20
2018,06,09,05,36,9.20
2018,06,09,05,37,9.20
2018,06,09,05,38,9.20
2018,06,09,05,39,9.10
2018,06,09,05,40,9.10
2018,06,09,05,41,9.10
2018,06,09,05,42,9.10
2018,06,09,05,43,9.10
2018,06,09,05,44,9.10
2018,06,09,05,45,9.10
2018,06,09,05,46,9.10
2018,06,09,05,47,9.10
2018,06,09,05,48,9.10
2018,06,09,05,49,9.10
2018,06,09,05,50,9.10
2018,06,09,05,51,9.10
2018,06,09,05,52,9.10
2018,06,09,05,53,9.10
2018,06,09,05,54,9.20
2018,06,09,05,55,9.20
2018,06,09,05,56,9.20
2018,06,09,05,57,9.20
2018,06,09,05,58,9.20
2018,06,09,05,59,9.10
2018,06,09,06,00,9.10
2018,06,09,06,01,9.10
2018,06,09,06,02,9.10
2018,06,09,06,03,9.10
2018,06,09,06,04,9.10
2018,06,09,06,05,9.10
2018,06,09,06,06,9.10
2018,06,09,06,07,9.10
2018,06,09,06,08,9.10
2018,06,09,06,09,9.10
2018,06,09,06,10,9.20
2018,06,09,06,11,9.20
2018,06,09,06,12,9.20
2018,06,09,06,13,9.20
2018,06,09,06,14,9.20
2018,06,09,06,15,9.20
2018,06,09,06,16,9.20
2018,06,09,06,17,9.20
2018,06,09,06,18,9.20
2018,06,09,06,19,9.20
2018,06,09,06,20,9.20
2018,06,09,06,21,9.20
2018,06,09,06,22,9.20
2018,06,09,06,23,9.20
2018,06,09,06,24,9.20
2018,06,09,06,25,9.20
2018,06,09,06,26,9.20
2018,06,09,06,27,9.20
2018,06,09,06,28,9.20
2018,06,09,06,29,9.20
2018,06,09,06,30,9.20
2018,06,09,06,31,9.20
2018,06,09,06,32,9.20
2018,06,09,06,33,9.10
2018,06,09,06,34,9.10
2018,06,09,06,35,9.10
2018,06,09,06,36,9.10
2018,06,09,06,37,9.10
2018,06,09,06,38,9.10
2018,06,09,06,39,9.20
2018,06,09,06,40,9.20
2018,06,09,06,41,9.20
2018,06,09,06,42,9.20
2018,06,09,06,43,9.20
2018,06,09,06,44,9.20
2018,06,09,06,45,9.20
2018,06,09,06,46,9.20
2018,06,09,06,47,9.20
2018,06,09,06,48,9.20
2018,06,09,06,49,9.20
2018,06,09,06,50,9.20
2018,06,09,06,51,9.20
2018,06,09,06,52,9.20
2018,06,09,06,53,9.20
2018,06,09,06,54,9.20
2018,06,09,06,55,9.20
2018,06,09,06,56,9.20
2018,06,09,06,57,9.20
2018,06,09,06,58,9.20
2018,06,09,06,59,9.20
2018,06,09,07,00,9.20
2018,06,09,07,01,9.20
2018,06,09,07,02,9.20
2018,06,09,07,03,9.20
2018,06,09,07,04,9.20
2018,06,09,07,05,9.20
2018,06,09,07,06,9.20
2018,06,09,07,07,9.20
2018,06,09,07,08,9.20
2018,06,09,07,09,9.20
2018,06,09,07,10,9.20
2018,06,09,07,11,9.20
2018,06,09,07,12,9.20
2018,06,09,07,13,9.20
2018,06,09,07,14,9.20
2018,06,09,07,15,9.10
2018,06,09,07,16,9.10
2018,06,09,07,17,9.10
2018,06,09,07,18,9.10
2018,06,09,07,19,9.10
2018,06,09,07,20,9.10
2018,06,09,07,21,9.10
2018,06,09,07,22,9.10
2018,06,09,07,23,9.10
2018,06,09,07,24,9.10
2018,06,09,07,25,9.10
2018,06,09,07,26,9.10
2018,06,09,07,27,9.10
2018,06,09,07,28,9.10
2018,06,09,07,29,9.10
2018,06,09,07,30,9.00
2018,06,09,07,31,9.00
2018,06,09,07,32,9.00
2018,06,09,07,33,9.00
2018,06,09,07,34,9.00
2018,06,09,07,35,9.00
2018,06,09,07,36,9.00
2018,06,09,07,37,9.00
2018,06,09,07,38,9.00
2018,06,09,07,39,9.10
2018,06,09,07,40,9.10
2018,06,09,07,41,9.10
2018,06,09,07,42,9.10
2018,06,09,07,43,9.20
2018,06,09,07,44,9.20
2018,06,09,07,45,9.20
2018,06,09,07,46,9.30
2018,06,09,07,47,9.30
2018,06,09,07,48,9.40
2018,06,09,07,49,9.40
2018,06,09,07,50,9.50
2018,06,09,07,51,9.50
2018,06,09,07,52,9.50
2018,06,09,07,53,9.60
2018,06,09,07,54,9.60
2018,06,09,07,55,9.50
2018,06,09,07,56,9.50
2018,06,09,07,57,9.50
2018,06,09,07,58,9.60
2018,06,09,07,59,9.60
2018,06,09,08,00,9.60
2018,06,09,08,01,9.70
2018,06,09,08,02,9.80
2018,06,09,08,03,9.90
2018,06,09,08,04,9.90
2018,06,09,08,05,10.10
2018,06,09,08,06,10.10
2018,06,09,08,07,10.20
2018,06,09,08,08,10.20
2018,06,09,08,09,10.30
2018,06,09,08,10,10.30
2018,06,09,08,11,10.30
2018,06,09,08,12,10.40
2018,06,09,08,13,10.30
2018,06,09,08,14,10.30
2018,06,09,08,15,10.40
2018,06,09,08,16,10.40
2018,06,09,08,17,10.50
2018,06,09,08,18,10.60
2018,06,09,08,19,10.60
2018,06,09,08,20,10.70
2018,06,09,08,21,10.70
2018,06,09,08,22,10.70
2018,06,09,08,23,10.60
2018,06,09,08,24,10.60
2018,06,09,08,25,10.60
2018,06,09,08,26,10.60
2018,06,09,08,27,10.70
2018,06,09,08,28,10.60
2018,06,09,08,29,10.60
2018,06,09,08,30,10.60
2018,06,09,08,31,10.50
2018,06,09,08,32,10.50
2018,06,09,08,33,10.40
2018,06,09,08,34,10.40
2018,06,09,08,35,10.50
2018,06,09,08,36,10.50
2018,06,09,08,37,10.70
2018,06,09,08,38,10.80
2018,06,09,08,39,10.90
2018,06,09,08,40,11.00
2018,06,09,08,41,11.00
2018,06,09,08,42,11.00
2018,06,09,08,43,10.90
2018,06,09,08,44,10.90
2018,06,09,08,45,10.90
2018,06,09,08,46,10.90
2018,06,09,08,47,10.90
2018,06,09,08,48,10.90
2018,06,09,08,49,10.90
2018,06,09,08,50,10.80
2018,06,09,08,51,10.70
2018,06,09,08,52,10.70
2018,06,09,08,53,10.70
2018,06,09,08,54,10.70
2018,06,09,08,55,10.70
2018,06,09,08,56,10.70
2018,06,09,08,57,10.60
2018,06,09,08,58,10.60
2018,06,09,08,59,10.70
2018,06,09,09,00,10.80
2018,06,09,09,01,10.80
2018,06,09,09,02,10.80
2018,06,09,09,03,10.80
2018,06,09,09,04,10.90
2018,06,09,09,05,11.00
2018,06,09,09,06,11.20
2018,06,09,09,07,11.30
2018,06,09,09,08,11.40
2018,06,09,09,09,11.50
2018,06,09,09,10,11.60
2018,06,09,09,11,11.70
2018,06,09,09,12,11.80
2018,06,09,09,13,11.80
2018,06,09,09,14,11.90
2018,06,09,09,15,11.90
2018,06,09,09,16,12.00
2018,06,09,09,17,12.10
2018,06,09,09,18,12.20
2018,06,09,09,19,12.30
2018,06,09,09,20,12.30
2018,06,09,09,21,12.30
2018,06,09,09,22,12.30
2018,06,09,09,23,12.30
2018,06,09,09,24,12.30
2018,06,09,09,25,12.30
2018,06,09,09,26,12.40
2018,06,09,09,27,12.40
2018,06,09,09,28,12.50
2018,06,09,09,29,12.60
2018,06,09,09,30,12.80
2018,06,09,09,31,12.80
2018,06,09,09,32,12.80
2018,06,09,09,33,12.80
2018,06,09,09,34,12.80
2018,06,09,09,35,12.80
2018,06,09,09,36,12.70
2018,06,09,09,37,12.70
2018,06,09,09,38,12.70
2018,06,09,09,39,12.70
2018,06,09,09,40,12.70
2018,06,09,09,41,12.80
2018,06,09,09,42,12.80
2018,06,09,09,43,12.90
2018,06,09,09,44,12.90
2018,06,09,09,45,12.90
2018,06,09,09,46,12.80
2018,06,09,09,47,12.80
2018,06,09,09,48,12.90
2018,06,09,09,49,12.80
2018,06,09,09,50,12.80
2018,06,09,09,51,12.80
2018,06,09,09,52,12.80
2018,06,09,09,53,12.70
2018,06,09,09,54,12.60
2018,06,09,09,55,12.50
2018,06,09,09,56,12.40
2018,06,09,09,57,12.40
2018,06,09,09,58,12.30
2018,06,09,09,59,12.30
2018,06,09,10,00,12.30
2018,06,09,10,01,12.30
2018,06,09,10,02,12.30
2018,06,09,10,03,12.20
2018,06,09,10,04,12.20
2018,06,09,10,05,12.30
2018,06,09,10,06,12.30
2018,06,09,10,07,12.40
2018,06,09,10,08,12.50
2018,06,09,10,09,12.40
2018,06,09,10,10,12.50
2018,06,09,10,11,12.50
2018,06,09,10,12,12.50
2018,06,09,10,13,12.50
2018,06,09,10,14,12.60
2018,06,09,10,15,12.60
2018,06,09,10,16,12.70
2018,06,09,10,17,12.70
2018,06,09,10,18,12.70
2018,06,09,10,19,12.70
2018,06,09,10,20,12.70
2018,06,09,10,21,12.70
2018,06,09,10,22,12.70
2018,06,09,10,23,12.60
2018,06,09,10,24,12.60
2018,06,09,10,25,12.50
2018,06,09,10,26,12.50
2018,06,09,10,27,12.40
2018,06,09,10,28,12.30
2018,06,09,10,29,12.30
2018,06,09,10,30,12.30
2018,06,09,10,31,12.30
2018,06,09,10,32,12.30
2018,06,09,10,33,12.20
2018,06,09,10,34,12.20
2018,06,09,10,35,12.20
2018,06,09,10,36,12.10
2018,06,09,10,37,12.10
2018,06,09,10,38,12.10
2018,06,09,10,39,12.10
2018,06,09,10,40,12.10
2018,06,09,10,41,12.10
2018,06,09,10,42,12.10
2018,06,09,10,43,12.10
2018,06,09,10,44,12.10
2018,06,09,10,45,12.20
2018,06,09,10,46,12.20
2018,06,09,10,47,12.20
2018,06,09,10,48,12.30
2018,06,09,10,49,12.30
2018,06,09,10,50,12.40
2018,06,09,10,51,12.40
2018,06,09,10,52,12.50
2018,06,09,10,53,12.60
2018,06,09,10,54,12.70
2018,06,09,10,55,12.70
2018,06,09,10,56,12.80
2018,06,09,10,57,12.80
2018,06,09,10,58,12.90
2018,06,09,10,59,13.00
2018,06,09,11,00,13.00
2018,06,09,11,01,12.90
2018,06,09,11,02,12.90
2018,06,09,11,03,12.90
2018,06,09,11,04,12.90
2018,06,09,11,05,12.90
2018,06,09,11,06,12.80
2018,06,09,11,07,12.80
2018,06,09,11,08,12.80
2018,06,09,11,09,12.80
2018,06,09,11,10,12.80
2018,06,09,11,11,12.80
2018,06,09,11,12,12.70
2018,06,09,11,13,12.80
2018,06,09,11,14,12.80
2018,06,09,11,15,12.80
2018,06,09,11,16,12.70
2018,06,09,11,17,12.80
2018,06,09,11,18,12.80
2018,06,09,11,19,12.80
2018,06,09,11,20,12.80
2018,06,09,11,21,12.80
2018,06,09,11,22,12.80
2018,06,09,11,23,12.80
2018,06,09,11,24,12.80
2018,06,09,11,25,12.70
2018,06,09,11,26,12.70
2018,06,09,11,27,12.60
2018,06,09,11,28,12.60
2018,06,09,11,29,12.60
2018,06,09,11,30,12.60
2018,06,09,11,31,12.50
2018,06,09,11,32,12.40
2018,06,09,11,33,12.40
2018,06,09,11,34,12.40
2018,06,09,11,35,12.40
2018,06,09,11,36,12.40
2018,06,09,11,37,12.40
2018,06,09,11,38,12.40
2018,06,09,11,39,12.40
2018,06,09,11,40,12.30
2018,06,09,11,41,12.30
2018,06,09,11,42,12.40
2018,06,09,11,43,12.40
2018,06,09,11,44,12.40
2018,06,09,11,45,12.40
2018,06,09,11,46,12.40
2018,06,09,11,47,12.40
2018,06,09,11,48,12.40
2018,06,09,11,49,12.30
2018,06,09,11,50,12.30
2018,06,09,11,51,12.30
2018,06,09,11,52,12.30
2018,06,09,11,53,12.30
2018,06,09,11,54,12.30
2018,06,09,11,55,12.30
2018,06,09,11,56,12.30
2018,06,09,11,57,12.30
2018,06,09,11,58,12.30
2018,06,09,11,59,12.20
2018,06,09,12,00,12.20
2018,06,09,12,01,12.10
2018,06,09,12,02,12.10
2018,06,09,12,03,12.10
2018,06,09,12,04,12.10
2018,06,09,12,05,12.10
2018,06,09,12,06,12.10
2018,06,09,12,07,12.10
2018,06,09,12,08,12.10
2018,06,09,12,09,12.10
2018,06,09,12,10,12.10
2018,06,09,12,11,12.10
2018,06,09,12,12,12.10
2018,06,09,12,13,12.10
2018,06,09,12,14,12.10
2018,06,09,12,15,12.10
2018,06,09,12,16,12.10
2018,06,09,12,17,12.10
2018,06,09,12,18,12.10
2018,06,09,12,19,12.10
2018,06,09,12,20,12.10
2018,06,09,12,21,12.10
2018,06,09,12,22,12.10
2018,06,09,12,23,12.10
2018,06,09,12,24,12.10
2018,06,09,12,25,12.10
2018,06,09,12,26,12.10
2018,06,09,12,27,12.10
2018,06,09,12,28,12.10
2018,06,09,12,29,12.10
2018,06,09,12,30,12.10
2018,06,09,12,31,12.10
2018,06,09,12,32,12.10
2018,06,09,12,33,12.10
2018,06,09,12,34,12.10
2018,06,09,12,35,12.00
2018,06,09,12,36,12.00
2018,06,09,12,37,11.90
2018,06,09,12,38,11.80
2018,06,09,12,39,11.80
2018,06,09,12,40,11.80
2018,06,09,12,41,11.80
2018,06,09,12,42,11.80
2018,06,09,12,43,11.80
2018,06,09,12,44,11.90
2018,06,09,12,45,11.90
2018,06,09,12,46,11.90
2018,06,09,12,47,11.90
2018,06,09,12,48,11.90
2018,06,09,12,49,11.80
2018,06,09,12,50,11.80
2018,06,09,12,51,11.80
2018,06,09,12,52,11.80
2018,06,09,12,53,11.90
2018,06,09,12,54,11.90
2018,06,09,12,55,12.00
2018,06,09,12,56,12.10
2018,06,09,12,57,12.10
2018,06,09,12,58,12.20
2018,06,09,12,59,12.30
2018,06,09,13,00,12.30
2018,06,09,13,01,12.30
2018,06,09,13,02,12.30
2018,06,09,13,03,12.40
2018,06,09,13,04,12.60
2018,06,09,13,05,12.70
2018,06,09,13,06,12.70
2018,06,09,13,07,12.80
2018,06,09,13,08,12.80
2018,06,09,13,09,12.90
2018,06,09,13,10,12.90
2018,06,09,13,11,12.90
2018,06,09,13,12,12.80
2018,06,09,13,13,12.80
2018,06,09,13,14,12.80
2018,06,09,13,15,12.90
2018,06,09,13,16,12.90
2018,06,09,13,17,12.90
2018,06,09,13,18,13.00
2018,06,09,13,19,13.00
2018,06,09,13,20,13.10
2018,06,09,13,21,13.10
2018,06,09,13,22,13.10
2018,06,09,13,23,13.20
2018,06,09,13,24,13.20
2018,06,09,13,25,13.30
2018,06,09,13,26,13.30
2018,06,09,13,27,13.40
2018,06,09,13,28,13.50
2018,06,09,13,29,13.50
2018,06,09,13,30,13.50
2018,06,09,13,31,13.50
2018,06,09,13,32,13.50
2018,06,09,13,33,13.50
2018,06,09,13,34,13.60
2018,06,09,13,35,13.60
2018,06,09,13,36,13.70
2018,06,09,13,37,13.70
2018,06,09,13,38,13.70
2018,06,09,13,39,13.70
2018,06,09,13,40,13.70
2018,06,09,13,41,13.70
2018,06,09,13,42,13.80
2018,06,09,13,43,13.80
2018,06,09,13,44,13.80
2018,06,09,13,45,13.80
2018,06,09,13,46,13.80
2018,06,09,13,47,13.80
2018,06,09,13,48,13.80
2018,06,09,13,49,13.90
2018,06,09,13,50,13.90
2018,06,09,13,51,13.90
2018,06,09,13,52,13.90
2018,06,09,13,53,13.90
2018,06,09,13,54,14.00
2018,06,09,13,55,14.00
2018,06,09,13,56,14.00
2018,06,09,13,57,14.10
2018,06,09,13,58,14.10
2018,06,09,13,59,14.10
2018,06,09,14,00,14.10
2018,06,09,14,01,14.10
2018,06,09,14,02,14.10
2018,06,09,14,03,14.00
2018,06,09,14,04,14.00
2018,06,09,14,05,13.90
2018,06,09,14,06,13.90
2018,06,09,14,07,13.90
2018,06,09,14,08,13.90
2018,06,09,14,09,13.90
2018,06,09,14,10,13.80
2018,06,09,14,11,13.80
2018,06,09,14,12,13.80
2018,06,09,14,13,13.80
2018,06,09,14,14,13.80
2018,06,09,14,15,13.80
2018,06,09,14,16,13.80
2018,06,09,14,17,13.80
2018,06,09,14,18,13.80
2018,06,09,14,19,13.80
2018,06,09,14,20,13.80
2018,06,09,14,21,13.80
2018,06,09,14,22,13.80
2018,06,09,14,23,13.80
2018,06,09,14,24,13.80
2018,06,09,14,25,13.90
2018,06,09,14,26,13.90
2018,06,09,14,27,14.00
2018,06,09,14,28,14.00
2018,06,09,14,29,13.90
2018,06,09,14,30,13.90
2018,06,09,14,31,13.90
2018,06,09,14,32,14.00
2018,06,09,14,33,14.00
2018,06,09,14,34,14.00
2018,06,09,14,35,14.00
2018,06,09,14,36,14.10
2018,06,09,14,37,14.10
2018,06,09,14,38,14.10
2018,06,09,14,39,14.10
2018,06,09,14,40,14.10
2018,06,09,14,41,14.10
2018,06,09,14,42,14.20
2018,06,09,14,43,14.20
2018,06,09,14,44,14.20
2018,06,09,14,45,14.20
2018,06,09,14,46,14.20
2018,06,09,14,47,14.30
2018,06,09,14,48,14.30
2018,06,09,14,49,14.40
2018,06,09,14,50,14.50
2018,06,09,14,51,14.50
2018,06,09,14,52,14.50
2018,06,09,14,53,14.60
2018,06,09,14,54,14.60
2018,06,09,14,55,14.60
2018,06,09,14,56,14.60
2018,06,09,14,57,14.60
2018,06,09,14,58,14.60
2018,06,09,14,59,14.60
2018,06,09,15,00,14.60
2018,06,09,15,01,14.50
2018,06,09,15,02,14.50
2018,06,09,15,03,14.50
2018,06,09,15,04,14.50
2018,06,09,15,05,14.50
2018,06,09,15,06,14.60
2018,06,09,15,07,14.60
2018,06,09,15,08,14.70
2018,06,09,15,09,14.60
2018,06,09,15,10,14.60
2018,06,09,15,11,14.60
2018,06,09,15,12,14.50
2018,06,09,15,13,14.50
2018,06,09,15,14,14.40
2018,06,09,15,15,14.40
2018,06,09,15,16,14.30
2018,06,09,15,17,14.40
2018,06,09,15,18,14.40
2018,06,09,15,19,14.40
2018,06,09,15,20,14.50
2018,06,09,15,21,14.50
2018,06,09,15,22,14.50
2018,06,09,15,23,14.50
2018,06,09,15,24,14.60
2018,06,09,15,25,14.60
2018,06,09,15,26,14.60
2018,06,09,15,27,14.50
2018,06,09,15,28,14.50
2018,06,09,15,29,14.50
2018,06,09,15,30,14.50
2018,06,09,15,31,14.60
2018,06,09,15,32,14.60
2018,06,09,15,33,14.60
2018,06,09,15,34,14.60
2018,06,09,15,35,14.50
2018,06,09,15,36,14.50
2018,06,09,15,37,14.50
2018,06,09,15,38,14.40
2018,06,09,15,39,14.40
2018,06,09,15,40,14.40
2018,06,09,15,41,14.40
2018,06,09,15,42,14.30
2018,06,09,15,43,14.30
2018,06,09,15,44,14.30
2018,06,09,15,45,14.20
2018,06,09,15,46,14.20
2018,06,09,15,47,14.10
2018,06,09,15,48,14.10
2018,06,09,15,49,14.10
2018,06,09,15,50,14.00
2018,06,09,15,51,14.00
2018,06,09,15,52,14.00
2018,06,09,15,53,13.90
2018,06,09,15,54,13.80
2018,06,09,15,55,13.60
2018,06,09,15,56,13.40
2018,06,09,15,57,13.20
2018,06,09,15,58,13.10
2018,06,09,15,59,13.00
2018,06,09,16,00,12.80
2018,06,09,16,01,12.70
2018,06,09,16,02,12.50
2018,06,09,16,03,12.40
2018,06,09,16,04,12.20
2018,06,09,16,05,12.00
2018,06,09,16,06,11.90
2018,06,09,16,07,11.80
2018,06,09,16,08,11.70
2018,06,09,16,09,11.60
2018,06,09,16,10,11.50
2018,06,09,16,11,11.40
2018,06,09,16,12,11.40
2018,06,09,16,13,11.30
2018,06,09,16,14,11.40
2018,06,09,16,15,11.40
2018,06,09,16,16,11.30
2018,06,09,16,17,11.30
2018,06,09,16,18,11.30
2018,06,09,16,19,11.20
2018,06,09,16,20,11.20
2018,06,09,16,21,11.20
2018,06,09,16,22,11.20
2018,06,09,16,23,11.10
2018,06,09,16,24,11.10
2018,06,09,16,25,11.10
2018,06,09,16,26,11.10
2018,06,09,16,27,11.10
2018,06,09,16,28,11.10
2018,06,09,16,29,11.10
2018,06,09,16,30,11.10
2018,06,09,16,31,11.10
2018,06,09,16,32,11.00
2018,06,09,16,33,11.10
2018,06,09,16,34,11.00
2018,06,09,16,35,11.00
2018,06,09,16,36,11.00
2018,06,09,16,37,10.90
2018,06,09,16,38,10.90
2018,06,09,16,39,10.90
2018,06,09,16,40,10.90
2018,06,09,16,41,10.90
2018,06,09,16,42,10.80
2018,06,09,16,43,10.80
2018,06,09,16,44,10.80
2018,06,09,16,45,10.80
2018,06,09,16,46,10.80
2018,06,09,16,47,10.80
2018,06,09,16,48,10.80
2018,06,09,16,49,10.80
2018,06,09,16,50,10.80
2018,06,09,16,51,10.80
2018,06,09,16,52,10.80
2018,06,09,16,53,10.80
2018,06,09,16,54,10.80
2018,06,09,16,55,10.90
2018,06,09,16,56,10.90
2018,06,09,16,57,10.90
2018,06,09,16,58,10.90
2018,06,09,16,59,11.00
2018,06,09,17,00,11.00
2018,06,09,17,01,11.00
2018,06,09,17,02,11.00
2018,06,09,17,03,11.00
2018,06,09,17,04,11.00
2018,06,09,17,05,11.00
2018,06,09,17,06,11.00
2018,06,09,17,07,11.10
2018,06,09,17,08,11.10
2018,06,09,17,09,11.10
2018,06,09,17,10,11.10
2018,06,09,17,11,11.10
2018,06,09,17,12,11.10
2018,06,09,17,13,11.10
2018,06,09,17,14,11.10
2018,06,09,17,15,11.10
2018,06,09,17,16,11.10
2018,06,09,17,17,11.10
2018,06,09,17,18,11.10
2018,06,09,17,19,11.10
2018,06,09,17,20,11.10
2018,06,09,17,21,11.10
2018,06,09,17,22,11.10
2018,06,09,17,23,11.10
2018,06,09,17,24,11.20
2018,06,09,17,25,11.20
2018,06,09,17,26,11.20
2018,06,09,17,27,11.20
2018,06,09,17,28,11.20
2018,06,09,17,29,11.20
2018,06,09,17,30,11.30
2018,06,09,17,31,11.20
2018,06,09,17,32,11.20
2018,06,09,17,33,11.20
2018,06,09,17,34,11.20
2018,06,09,17,35,11.20
2018,06,09,17,36,11.20